Zurück zum Katalog

FENGYUN 1C DEB

AktivSSO
NORAD 29877·DEBRIS·🇨🇳 China

Gestartet May 10, 1999 von Taiyuan Satellite Launch Center

Loading…

Nächste Überflüge (nächste 24 Stunden)

TLE

AktuellSource: Space-Track

Epoche: Sep 14, 2026, 00:01 UTC

1 29877U 99025FX  26257.00104921  .00000565  00000-0  25483-3 0  9998
2 29877  98.5409 259.9327 0046990 134.4707 281.7381 14.25323786 18898

Verfolge FENGYUN 1C DEB in Echtzeit mit AllMySat

Download on the App Store